QPF
0.00 0.00 0.00 0.00 0.00 0.00 0.00 0.00 0.00 0.00 0.00 0.00 0.00 0.00 0.00 0.00 0.01 0.01 0.02 0.01 0.01 0.03 0.03 0.03 0.04 0.03 0.04 0.03 0.02 0.02 0.03 0.03 0.02 0.02 0.02 0.03 0.02 0.02 0.01 0.01 0.01 0.01 0.01
0.00 0.00 0.00 0.00 0.00 0.00 0.00 0.00 0.00 0.00 0.00 0.00 0.00 0.00 0.00 0.00 0.00 0.00 0.01 0.02 0.03 0.04 0.05 0.04 0.03 0.01 0.03 0.03 0.02 0.02 0.02 0.02 0.01 0.02 0.02 0.02 0.02 0.02 0.02 0.01 0.01 0.01 0.02
0.00 0.00 0.00 0.00 0.00 0.00 0.00 0.00 0.00 0.00 0.00 0.00 0.00 0.00 0.00 0.00 0.00 0.00 0.01 0.02 0.02 0.03 0.04 0.03 0.03 0.03 0.03 0.04 0.02 0.02 0.02 0.02 0.02 0.02 0.02 0.02 0.01 0.01 0.01 0.02 0.01 0.01 0.01
0.00 0.00 0.00 0.00 0.00 0.00 0.00 0.00 0.00 0.00 0.00 0.00 0.00 0.00 0.00 0.00 0.00 0.00 0.01 0.01 0.00 0.01 0.01 0.02 0.02 0.02 0.03 0.04 0.03 0.02 0.02 0.02 0.03 0.01 0.01 0.01 0.01 0.01 0.01 0.02 0.02 0.02 0.01
0.01 0.00 0.00 0.00 0.00 0.00 0.00 0.00 0.00 0.00 0.00 0.00 0.00 0.00 0.00 0.00 0.00 0.00 0.00 0.00 0.00 0.01 0.01 0.01 0.01 0.02 0.02 0.02 0.02 0.02 0.01 0.02 0.02 0.01 0.01 0.01 0.01 0.02 0.02 0.03 0.03 0.03 0.02
0.01 0.00 0.00 0.00 0.00 0.00 0.00 0.00 0.00 0.00 0.00 0.00 0.00 0.00 0.00 0.00 0.00 0.00 0.00 0.00 0.00 0.01 0.00 0.00 0.01 0.01 0.01 0.01 0.01 0.01 0.00 0.01 0.01 0.01 0.01 0.02 0.02 0.03 0.03 0.03 0.03 0.02 0.01
0.01 0.00 0.01 0.00 0.00 0.00 0.00 0.00 0.00 0.00 0.01 0.00 0.00 0.00 0.00 0.00 0.00 0.00 0.00 0.00 0.00 0.00 0.00 0.00 0.00 0.00 0.00 0.00 0.00 0.00 0.00 0.00 0.00 0.01 0.02 0.02 0.01 0.01 0.01 0.01 0.02 0.03 0.02
0.00 0.00 0.00 0.00 0.00 0.00 0.00 0.00 0.00 0.00 0.00 0.00 0.00 0.00 0.00 0.00 0.00 0.00 0.00 0.00 0.00 0.00 0.00 0.00 0.00 0.00 0.00 0.00 0.01 0.00 0.00 0.00 0.00 0.00 0.01 0.02 0.02 0.01 0.01 0.01 0.01 0.01 0.01
0.00 0.00 0.00 0.00 0.00 0.01 0.01 0.00 0.00 0.00 0.00 0.00 0.00 0.00 0.00 0.00 0.00 0.00 0.00 0.00 0.00 0.00 0.00 0.00 0.00 0.00 0.00 0.00 0.00 0.00 0.00 0.00 0.00 0.00 0.00 0.01 0.01 0.01 0.01 0.01 0.00 0.01 0.01
0.00 0.00 0.00 0.00 0.00 0.01 0.01 0.01 0.00 0.01 0.01 0.01 0.00 0.00 0.00 0.00 0.00 0.00 0.00 0.00 0.00 0.00 0.00 0.00 0.00 0.00 0.00 0.00 0.01 0.00 0.00 0.00 0.00 0.00 0.00 0.00 0.00 0.00 0.00 0.00 0.01 0.01 0.01
0.00 0.00 0.00 0.00 0.01 0.01 0.02 0.01 0.01 0.01 0.01 0.01 0.01 0.01 0.00 0.00 0.00 0.00 0.00 0.00 0.00 0.00 0.00 0.00 0.00 0.00 0.00 0.00 0.00 0.00 0.00 0.00 0.00 0.00 0.00 0.00 0.00 0.00 0.00 0.00 0.00 0.00 0.01
0.01 0.01 0.01 0.01 0.01 0.01 0.01 0.01 0.01 0.01 0.02 0.01 0.01 0.01 0.01 0.00 0.00 0.00 0.00 0.00 0.00 0.00 0.00 0.00 0.00 0.00 0.00 0.00 0.00 0.00 0.00 0.00 0.00 0.00 0.00 0.00 0.00 0.00 0.00 0.00 0.00 0.00 0.00
0.01 0.01 0.01 0.01 0.01 0.01 0.02 0.02 0.02 0.01 0.02 0.01 0.01 0.01 0.01 0.01 0.01 0.01 0.00 0.00 0.00 0.00 0.00 0.00 0.00 0.00 0.00 0.00 0.00 0.00 0.00 0.00 0.00 0.00 0.00 0.00 0.00 0.00 0.00 0.00 0.00 0.00 0.00
0.01 0.01 0.01 0.01 0.01 0.01 0.02 0.02 0.02 0.02 0.01 0.01 0.02 0.02 0.02 0.01 0.01 0.01 0.01 0.01 0.00 0.00 0.00 0.00 0.00 0.00 0.00 0.00 0.00 0.00 0.00 0.00 0.00 0.00 0.00 0.00 0.00 0.00 0.00 0.00 0.00 0.00 0.00
0.01 0.01 0.01 0.01 0.01 0.01 0.01 0.01 0.02 0.02 0.03 0.03 0.03 0.03 0.02 0.01 0.02 0.02 0.02 0.01 0.01 0.01 0.01 0.00 0.00 0.00 0.00 0.00 0.01 0.01 0.00 0.00 0.00 0.00 0.00 0.00 0.00 0.00 0.00 0.00 0.00 0.00 0.00
0.01 0.01 0.01 0.01 0.01 0.01 0.01 0.01 0.02 0.02 0.03 0.03 0.03 0.02 0.02 0.02 0.02 0.01 0.02 0.01 0.01 0.01 0.01 0.01 0.01 0.01 0.01 0.01 0.01 0.00 0.00 0.00 0.00 0.00 0.00 0.00 0.00 0.00 0.00 0.00 0.00 0.00 0.01
0.01 0.01 0.01 0.01 0.01 0.02 0.02 0.02 0.01 0.02 0.01 0.01 0.01 0.01 0.01 0.01 0.01 0.01 0.01 0.01 0.01 0.01 0.01 0.01 0.01 0.01 0.01 0.00 0.00 0.00 0.00 0.00 0.00 0.00 0.00 0.00 0.00 0.00 0.00 0.00 0.00 0.00 0.01
0.01 0.03 0.03 0.03 0.03 0.03 0.03 0.02 0.02 0.02 0.01 0.01 0.01 0.01 0.01 0.01 0.01 0.01 0.01 0.01 0.01 0.01 0.01 0.01 0.01 0.01 0.01 0.01 0.01 0.00 0.00 0.00 0.00 0.00 0.00 0.00 0.00 0.00 0.00 0.00 0.01 0.00 0.00
0.02 0.02 0.03 0.04 0.04 0.03 0.02 0.02 0.01 0.01 0.01 0.01 0.01 0.01 0.02 0.01 0.01 0.01 0.00 0.00 0.01 0.01 0.01 0.01 0.01 0.01 0.01 0.01 0.00 0.00 0.00 0.00 0.00 0.00 0.00 0.00 0.00 0.00 0.00 0.00 0.00 0.00 0.00
0.02 0.02 0.02 0.03 0.03 0.02 0.01 0.01 0.01 0.01 0.01 0.01 0.01 0.01 0.01 0.01 0.00 0.00 0.01 0.01 0.01 0.01 0.01 0.01 0.01 0.01 0.00 0.00 0.00 0.00 0.00 0.00 0.00 0.00 0.00 0.00 0.00 0.01 0.01 0.01 0.00 0.00 0.00
0.01 0.02 0.03 0.03 0.03 0.02 0.01 0.01 0.01 0.01 0.01 0.01 0.01 0.01 0.02 0.02 0.02 0.02 0.01 0.01 0.01 0.01 0.01 0.00 0.00 0.00 0.00 0.00 0.00 0.00 0.00 0.00 0.00 0.00 0.00 0.01 0.01 0.01 0.01 0.00 0.00 0.00 0.00
0.01 0.02 0.03 0.02 0.02 0.02 0.01 0.01 0.01 0.01 0.01 0.01 0.01 0.02 0.02 0.02 0.02 0.01 0.01 0.01 0.01 0.00 0.00 0.00 0.00 0.00 0.00 0.00 0.00 0.00 0.00 0.00 0.00 0.01 0.01 0.01 0.01 0.01 0.00 0.00 0.00 0.00 0.00
0.02 0.02 0.02 0.02 0.02 0.02 0.01 0.01 0.01 0.01 0.01 0.01 0.01 0.01 0.01 0.01 0.01 0.01 0.01 0.01 0.00 0.00 0.00 0.00 0.00 0.00 0.00 0.00 0.00 0.01 0.01 0.01 0.02 0.02 0.02 0.02 0.01 0.01 0.01 0.01 0.01 0.01 0.01
0.01 0.01 0.01 0.01 0.01 0.01 0.01 0.01 0.01 0.01 0.01 0.02 0.02 0.02 0.03 0.03 0.03 0.02 0.01 0.01 0.01 0.01 0.01 0.01 0.01 0.01 0.01 0.01 0.01 0.01 0.02 0.02 0.02 0.02 0.02 0.01 0.01 0.01 0.01 0.01 0.01 0.01 0.01
0.01 0.01 0.01 0.01 0.01 0.01 0.01 0.02 0.01 0.01 0.01 0.01 0.02 0.02 0.02 0.03 0.03 0.03 0.02 0.02 0.02 0.02 0.02 0.02 0.02 0.02 0.02 0.02 0.02 0.01 0.01 0.01 0.01 0.01 0.01 0.01 0.01 0.01 0.01 0.01 0.01 0.01 0.01
0.01 0.01 0.02 0.02 0.03 0.03 0.02 0.01 0.01 0.01 0.01 0.01 0.01 0.01 0.01 0.01 0.02 0.02 0.02 0.02 0.02 0.02 0.02 0.02 0.02 0.01 0.01 0.01 0.01 0.01 0.01 0.01 0.00 0.00 0.00 0.00 0.00 0.00 0.01 0.01 0.01 0.01 0.01
MSLP
1016.71 1016.94 1017.20 1017.44 1017.63 1017.74 1017.76 1017.71 1017.61 1017.52 1017.47 1017.50 1017.62 1017.81 1018.04 1018.27 1018.47 1018.60 1018.65 1018.63 1018.56 1018.48 1018.44 1018.46 1018.55 1018.72 1018.93 1019.16 1019.37 1019.52 1019.60 1019.61 1019.56 1019.47 1019.38 1019.29 1019.24 1019.22 1019.22 1019.22 1019.21 1019.17 1019.08
1016.92 1017.17 1017.43 1017.66 1017.84 1017.94 1017.96 1017.91 1017.82 1017.74 1017.72 1017.77 1017.91 1018.13 1018.39 1018.65 1018.88 1019.04 1019.11 1019.09 1019.02 1018.93 1018.86 1018.84 1018.89 1019.01 1019.19 1019.40 1019.60 1019.76 1019.86 1019.89 1019.86 1019.79 1019.68 1019.58 1019.49 1019.43 1019.38 1019.35 1019.31 1019.25 1019.18
1017.12 1017.40 1017.67 1017.91 1018.08 1018.18 1018.20 1018.15 1018.08 1018.03 1018.02 1018.09 1018.25 1018.49 1018.77 1019.05 1019.30 1019.48 1019.57 1019.57 1019.51 1019.41 1019.32 1019.28 1019.29 1019.38 1019.53 1019.71 1019.90 1020.07 1020.19 1020.25 1020.24 1020.18 1020.09 1019.98 1019.86 1019.75 1019.66 1019.58 1019.50 1019.42 1019.33
1017.28 1017.59 1017.88 1018.13 1018.32 1018.43 1018.46 1018.44 1018.39 1018.35 1018.37 1018.46 1018.63 1018.88 1019.17 1019.46 1019.72 1019.91 1020.01 1020.03 1019.98 1019.88 1019.79 1019.72 1019.72 1019.77 1019.89 1020.06 1020.24 1020.41 1020.54 1020.62 1020.64 1020.61 1020.53 1020.42 1020.30 1020.16 1020.03 1019.91 1019.79 1019.67 1019.55
1017.32 1017.67 1018.00 1018.29 1018.51 1018.64 1018.71 1018.72 1018.71 1018.71 1018.75 1018.85 1019.03 1019.28 1019.56 1019.84 1020.09 1020.29 1020.40 1020.42 1020.38 1020.30 1020.21 1020.14 1020.11 1020.15 1020.25 1020.39 1020.55 1020.72 1020.86 1020.96 1021.00 1021.00 1020.95 1020.85 1020.73 1020.59 1020.44 1020.29 1020.13 1019.98 1019.82
1017.22 1017.63 1018.01 1018.35 1018.62 1018.81 1018.93 1018.99 1019.03 1019.06 1019.13 1019.24 1019.42 1019.65 1019.91 1020.16 1020.40 1020.57 1020.68 1020.72 1020.69 1020.63 1020.55 1020.48 1020.45 1020.48 1020.55 1020.67 1020.81 1020.97 1021.10 1021.21 1021.28 1021.30 1021.27 1021.21 1021.11 1020.98 1020.84 1020.67 1020.50 1020.32 1020.13
1016.97 1017.44 1017.89 1018.30 1018.63 1018.90 1019.09 1019.22 1019.31 1019.39 1019.48 1019.60 1019.76 1019.96 1020.18 1020.40 1020.59 1020.75 1020.85 1020.89 1020.88 1020.83 1020.78 1020.73 1020.71 1020.73 1020.79 1020.89 1021.01 1021.14 1021.26 1021.37 1021.45 1021.49 1021.49 1021.46 1021.39 1021.29 1021.17 1021.02 1020.84 1020.66 1020.46
1016.58 1017.13 1017.66 1018.14 1018.56 1018.90 1019.17 1019.38 1019.53 1019.65 1019.77 1019.89 1020.03 1020.19 1020.35 1020.52 1020.67 1020.79 1020.87 1020.92 1020.93 1020.92 1020.90 1020.88 1020.89 1020.91 1020.97 1021.05 1021.15 1021.25 1021.36 1021.45 1021.52 1021.57 1021.60 1021.59 1021.56 1021.51 1021.41 1021.29 1021.15 1020.97 1020.79
1016.12 1016.73 1017.33 1017.90 1018.40 1018.83 1019.18 1019.46 1019.67 1019.84 1019.97 1020.09 1020.20 1020.31 1020.42 1020.52 1020.63 1020.71 1020.78 1020.83 1020.87 1020.90 1020.92 1020.95 1020.99 1021.04 1021.11 1021.19 1021.27 1021.35 1021.42 1021.49 1021.55 1021.60 1021.64 1021.66 1021.66 1021.64 1021.59 1021.51 1021.40 1021.27 1021.11
1015.64 1016.31 1016.97 1017.59 1018.17 1018.68 1019.11 1019.45 1019.72 1019.93 1020.08 1020.19 1020.27 1020.33 1020.39 1020.44 1020.48 1020.54 1020.59 1020.65 1020.72 1020.80 1020.88 1020.96 1021.05 1021.14 1021.23 1021.31 1021.38 1021.44 1021.50 1021.54 1021.59 1021.62 1021.66 1021.69 1021.72 1021.73 1021.72 1021.69 1021.63 1021.55 1021.43
1015.19 1015.88 1016.58 1017.25 1017.88 1018.45 1018.94 1019.34 1019.67 1019.91 1020.08 1020.18 1020.24 1020.27 1020.27 1020.27 1020.28 1020.31 1020.36 1020.43 1020.53 1020.65 1020.79 1020.94 1021.09 1021.23 1021.35 1021.44 1021.52 1021.57 1021.61 1021.63 1021.66 1021.68 1021.71 1021.75 1021.79 1021.83 1021.86 1021.87 1021.86 1021.83 1021.77
1014.81 1015.49 1016.19 1016.88 1017.53 1018.14 1018.67 1019.12 1019.49 1019.77 1019.96 1020.07 1020.12 1020.13 1020.10 1020.07 1020.06 1020.06 1020.11 1020.20 1020.33 1020.50 1020.69 1020.90 1021.10 1021.29 1021.45 1021.58 1021.67 1021.72 1021.75 1021.77 1021.78 1021.80 1021.82 1021.86 1021.91 1021.97 1022.03 1022.08 1022.12 1022.15 1022.15
1014.50 1015.13 1015.80 1016.47 1017.12 1017.74 1018.30 1018.79 1019.19 1019.51 1019.73 1019.87 1019.93 1019.93 1019.91 1019.87 1019.84 1019.84 1019.89 1019.99 1020.15 1020.35 1020.59 1020.84 1021.10 1021.33 1021.53 1021.69 1021.81 1021.88 1021.92 1021.95 1021.96 1021.97 1022.00 1022.05 1022.11 1022.19 1022.27 1022.36 1022.44 1022.52 1022.58
1014.25 1014.81 1015.41 1016.04 1016.66 1017.27 1017.84 1018.35 1018.79 1019.15 1019.41 1019.59 1019.68 1019.71 1019.70 1019.67 1019.65 1019.66 1019.72 1019.83 1020.01 1020.23 1020.50 1020.79 1021.07 1021.34 1021.58 1021.77 1021.92 1022.03 1022.09 1022.14 1022.17 1022.21 1022.25 1022.32 1022.40 1022.50 1022.61 1022.73 1022.86 1022.97 1023.09
1014.05 1014.52 1015.04 1015.59 1016.17 1016.75 1017.32 1017.84 1018.31 1018.71 1019.02 1019.25 1019.39 1019.47 1019.50 1019.50 1019.51 1019.54 1019.61 1019.74 1019.92 1020.16 1020.43 1020.73 1021.04 1021.33 1021.60 1021.82 1022.00 1022.15 1022.26 1022.34 1022.42 1022.49 1022.58 1022.68 1022.79 1022.92 1023.07 1023.22 1023.38 1023.54 1023.69
1013.90 1014.27 1014.69 1015.17 1015.69 1016.23 1016.78 1017.31 1017.80 1018.24 1018.61 1018.89 1019.10 1019.24 1019.33 1019.38 1019.43 1019.49 1019.58 1019.71 1019.90 1020.14 1020.41 1020.71 1021.02 1021.32 1021.60 1021.86 1022.07 1022.26 1022.42 1022.57 1022.70 1022.83 1022.97 1023.13 1023.29 1023.47 1023.65 1023.84 1024.03 1024.21 1024.40
1013.79 1014.07 1014.40 1014.81 1015.27 1015.77 1016.29 1016.82 1017.33 1017.80 1018.21 1018.56 1018.83 1019.04 1019.19 1019.31 1019.41 1019.51 1019.62 1019.78 1019.97 1020.20 1020.46 1020.75 1021.06 1021.36 1021.65 1021.93 1022.19 1022.42 1022.64 1022.84 1023.05 1023.25 1023.46 1023.67 1023.90 1024.12 1024.35 1024.58 1024.79 1025.00 1025.20
1013.74 1013.95 1014.22 1014.55 1014.96 1015.42 1015.91 1016.43 1016.94 1017.43 1017.89 1018.28 1018.62 1018.90 1019.12 1019.30 1019.45 1019.60 1019.75 1019.93 1020.13 1020.36 1020.63 1020.91 1021.21 1021.51 1021.81 1022.11 1022.40 1022.67 1022.95 1023.22 1023.49 1023.76 1024.04 1024.32 1024.61 1024.89 1025.16 1025.42 1025.66 1025.89 1026.09
1013.77 1013.93 1014.15 1014.44 1014.80 1015.22 1015.68 1016.18 1016.69 1017.19 1017.67 1018.10 1018.49 1018.82 1019.11 1019.36 1019.57 1019.78 1019.98 1020.19 1020.41 1020.66 1020.93 1021.21 1021.51 1021.82 1022.13 1022.45 1022.76 1023.07 1023.39 1023.71 1024.04 1024.38 1024.71 1025.06 1025.39 1025.72 1026.03 1026.32 1026.58 1026.82 1027.02
1013.88 1014.02 1014.22 1014.48 1014.80 1015.19 1015.62 1016.09 1016.58 1017.08 1017.57 1018.03 1018.45 1018.84 1019.18 1019.49 1019.78 1020.04 1020.30 1020.56 1020.82 1021.10 1021.39 1021.69 1022.00 1022.32 1022.64 1022.97 1023.30 1023.64 1023.99 1024.34 1024.71 1025.08 1025.47 1025.84 1026.22 1026.58 1026.91 1027.22 1027.50 1027.73 1027.92
1014.05 1014.19 1014.38 1014.62 1014.92 1015.28 1015.69 1016.14 1016.61 1017.10 1017.58 1018.06 1018.51 1018.94 1019.34 1019.71 1020.06 1020.40 1020.72 1021.04 1021.35 1021.68 1022.00 1022.33 1022.66 1022.99 1023.33 1023.67 1024.01 1024.36 1024.72 1025.09 1025.47 1025.85 1026.25 1026.64 1027.03 1027.40 1027.75 1028.06 1028.34 1028.57 1028.75
1014.24 1014.39 1014.58 1014.82 1015.11 1015.46 1015.84 1016.27 1016.73 1017.21 1017.70 1018.18 1018.66 1019.13 1019.58 1020.01 1020.43 1020.83 1021.23 1021.61 1021.99 1022.36 1022.73 1023.09 1023.45 1023.81 1024.15 1024.50 1024.84 1025.18 1025.53 1025.89 1026.25 1026.63 1027.00 1027.39 1027.76 1028.12 1028.47 1028.78 1029.05 1029.27 1029.45
1014.40 1014.56 1014.76 1015.00 1015.29 1015.63 1016.01 1016.43 1016.89 1017.37 1017.86 1018.37 1018.88 1019.38 1019.88 1020.37 1020.85 1021.32 1021.79 1022.24 1022.68 1023.11 1023.52 1023.92 1024.31 1024.68 1025.03 1025.38 1025.71 1026.03 1026.35 1026.68 1027.01 1027.35 1027.69 1028.03 1028.38 1028.72 1029.04 1029.34 1029.60 1029.82 1029.99
1014.48 1014.64 1014.84 1015.10 1015.40 1015.74 1016.13 1016.56 1017.03 1017.52 1018.04 1018.57 1019.12 1019.67 1020.22 1020.76 1021.31 1021.84 1022.36 1022.87 1023.37 1023.85 1024.31 1024.74 1025.15 1025.53 1025.89 1026.22 1026.54 1026.83 1027.12 1027.40 1027.69 1027.98 1028.27 1028.57 1028.87 1029.18 1029.47 1029.75 1030.00 1030.22 1030.39
1014.45 1014.61 1014.82 1015.08 1015.40 1015.76 1016.17 1016.63 1017.12 1017.64 1018.19 1018.76 1019.35 1019.95 1020.55 1021.15 1021.75 1022.34 1022.91 1023.47 1024.01 1024.53 1025.02 1025.47 1025.90 1026.29 1026.65 1026.97 1027.26 1027.53 1027.79 1028.03 1028.27 1028.51 1028.75 1029.01 1029.27 1029.53 1029.80 1030.06 1030.30 1030.51 1030.69
1014.35 1014.50 1014.71 1014.98 1015.31 1015.70 1016.14 1016.62 1017.15 1017.71 1018.30 1018.91 1019.55 1020.19 1020.84 1021.50 1022.14 1022.77 1023.39 1023.99 1024.56 1025.10 1025.61 1026.09 1026.52 1026.91 1027.27 1027.59 1027.87 1028.12 1028.35 1028.56 1028.76 1028.97 1029.17 1029.39 1029.61 1029.85 1030.08 1030.32 1030.55 1030.76 1030.94
Thickness
5710 5710 5710 5710 5710 5710 5709 5710 5711 5711 5712 5711 5710 5709 5709 5708 5707 5706 5705 5705 5703 5703 5702 5700 5698 5697 5695 5694 5693 5691 5688 5685 5677 5677 5679 5680 5679 5678 5677 5676 5675 5674 5672
5710 5709 5708 5708 5708 5707 5707 5708 5710 5710 5710 5710 5709 5708 5707 5707 5706 5704 5703 5703 5702 5700 5699 5698 5696 5695 5693 5692 5690 5687 5685 5684 5679 5674 5675 5676 5676 5676 5675 5674 5673 5672 5670
5709 5707 5707 5706 5706 5706 5705 5706 5707 5708 5708 5708 5707 5706 5705 5705 5704 5703 5702 5701 5700 5699 5697 5695 5694 5692 5689 5688 5686 5684 5682 5682 5679 5674 5672 5673 5673 5673 5672 5671 5671 5669 5668
5708 5706 5705 5704 5705 5705 5705 5705 5705 5706 5705 5705 5705 5704 5703 5702 5701 5701 5700 5699 5698 5697 5696 5694 5692 5689 5686 5685 5683 5680 5679 5676 5675 5672 5669 5669 5668 5669 5667 5664 5663 5664 5664
5707 5705 5704 5705 5704 5704 5703 5702 5702 5702 5703 5702 5701 5700 5700 5699 5698 5697 5697 5697 5695 5694 5693 5691 5688 5686 5684 5682 5680 5677 5675 5672 5669 5667 5665 5664 5662 5661 5660 5660 5658 5658 5659
5706 5704 5704 5703 5702 5701 5700 5700 5699 5698 5698 5698 5697 5696 5695 5694 5693 5694 5693 5692 5692 5691 5688 5687 5685 5683 5681 5679 5678 5675 5673 5669 5665 5663 5661 5659 5658 5657 5657 5656 5653 5651 5649
5706 5704 5703 5702 5699 5698 5698 5697 5695 5694 5694 5693 5692 5691 5689 5688 5689 5689 5689 5688 5687 5686 5685 5683 5682 5680 5678 5675 5673 5672 5669 5667 5665 5661 5657 5655 5654 5654 5653 5650 5648 5646 5645
5706 5705 5703 5700 5698 5696 5695 5693 5692 5691 5690 5688 5688 5687 5686 5685 5685 5685 5684 5683 5682 5681 5680 5679 5676 5674 5673 5671 5669 5667 5664 5662 5661 5658 5655 5653 5652 5651 5649 5646 5644 5643 5643
5706 5704 5702 5700 5696 5694 5692 5690 5690 5688 5687 5685 5685 5684 5682 5680 5681 5681 5680 5678 5677 5676 5675 5673 5672 5668 5667 5666 5664 5661 5658 5657 5656 5654 5652 5650 5647 5645 5643 5640 5637 5634 5631
5705 5704 5702 5699 5695 5692 5690 5689 5688 5686 5684 5683 5681 5680 5679 5677 5677 5677 5676 5674 5672 5670 5669 5667 5665 5664 5662 5660 5657 5655 5651 5650 5650 5648 5646 5644 5641 5639 5636 5633 5629 5625 5622
5705 5702 5700 5697 5694 5691 5688 5686 5685 5683 5681 5679 5677 5676 5676 5674 5673 5672 5671 5670 5667 5666 5663 5660 5658 5658 5656 5654 5652 5649 5647 5645 5644 5642 5639 5637 5634 5632 5629 5626 5623 5619 5614
5703 5699 5696 5694 5692 5689 5685 5683 5682 5679 5676 5675 5673 5671 5671 5670 5669 5667 5666 5665 5663 5660 5657 5655 5653 5652 5650 5648 5646 5644 5642 5640 5638 5635 5631 5628 5626 5623 5621 5619 5616 5613 5610
5698 5695 5692 5690 5688 5686 5682 5679 5677 5675 5673 5671 5669 5666 5665 5665 5664 5663 5662 5660 5658 5655 5652 5650 5648 5646 5644 5642 5640 5638 5635 5632 5629 5626 5622 5620 5619 5617 5614 5611 5608 5605 5602
5694 5691 5689 5686 5683 5682 5680 5677 5674 5672 5669 5668 5666 5663 5662 5661 5659 5658 5656 5653 5652 5649 5646 5644 5642 5639 5637 5635 5633 5630 5628 5625 5622 5618 5616 5614 5612 5609 5605 5602 5598 5594 5590
5690 5687 5684 5682 5679 5676 5673 5671 5670 5669 5668 5666 5664 5662 5659 5656 5656 5656 5653 5650 5648 5645 5641 5638 5634 5631 5629 5627 5625 5623 5621 5618 5614 5611 5608 5605 5602 5599 5595 5592 5588 5584 5579
5685 5682 5680 5677 5675 5671 5667 5663 5662 5662 5662 5662 5661 5659 5657 5656 5654 5651 5649 5646 5644 5641 5637 5632 5629 5626 5624 5621 5618 5615 5612 5609 5607 5603 5599 5596 5592 5589 5585 5582 5578 5573 5568
5682 5679 5677 5674 5671 5667 5664 5660 5655 5652 5653 5654 5654 5653 5651 5649 5648 5646 5643 5640 5637 5634 5630 5626 5623 5621 5618 5615 5611 5608 5604 5601 5598 5594 5590 5586 5583 5579 5575 5571 5567 5562 5557
5678 5675 5673 5669 5667 5664 5661 5657 5654 5650 5646 5644 5644 5644 5644 5642 5640 5638 5635 5632 5627 5625 5623 5620 5617 5614 5611 5607 5603 5600 5596 5593 5589 5585 5581 5577 5573 5569 5564 5560 5555 5550 5545
5672 5670 5668 5665 5663 5660 5657 5653 5650 5647 5644 5640 5637 5635 5635 5634 5632 5629 5627 5625 5621 5618 5615 5612 5609 5606 5602 5599 5595 5591 5588 5584 5580 5575 5571 5567 5563 5558 5554 5549 5544 5540 5534
5666 5665 5663 5660 5657 5654 5651 5648 5645 5643 5640 5637 5634 5631 5628 5626 5623 5620 5618 5617 5614 5611 5608 5605 5601 5598 5594 5590 5586 5583 5579 5574 5570 5565 5561 5557 5552 5548 5543 5538 5532 5527 5521
5660 5657 5656 5653 5651 5649 5647 5644 5642 5639 5636 5632 5630 5628 5626 5623 5619 5616 5612 5610 5607 5604 5601 5597 5594 5590 5586 5582 5577 5573 5569 5564 5560 5555 5550 5545 5541 5536 5531 5526 5521 5515 5509
5653 5651 5649 5647 5645 5643 5641 5640 5638 5635 5632 5628 5625 5622 5620 5617 5613 5610 5607 5604 5601 5597 5594 5590 5585 5581 5577 5572 5568 5563 5559 5554 5548 5544 5539 5534 5529 5524 5519 5514 5508 5502 5496
5648 5645 5642 5641 5639 5637 5635 5634 5631 5628 5625 5623 5620 5617 5613 5610 5607 5604 5600 5597 5593 5589 5585 5581 5576 5571 5567 5563 5558 5553 5548 5542 5538 5533 5527 5523 5517 5512 5507 5501 5495 5489 5482
5641 5639 5636 5634 5633 5631 5628 5626 5624 5622 5619 5616 5613 5610 5606 5603 5599 5596 5592 5588 5584 5580 5576 5571 5567 5562 5557 5552 5547 5542 5537 5532 5527 5522 5516 5511 5506 5500 5495 5489 5483 5476 5470
5634 5632 5630 5627 5625 5623 5621 5619 5617 5615 5612 5609 5605 5602 5598 5595 5591 5587 5583 5579 5575 5570 5566 5561 5556 5551 5546 5541 5536 5531 5526 5521 5516 5510 5505 5500 5494 5488 5482 5476 5470 5463 5457
5626 5624 5622 5620 5618 5616 5613 5611 5609 5607 5604 5601 5597 5593 5590 5586 5582 5578 5574 5570 5565 5560 5555 5550 5545 5540 5535 5530 5524 5519 5514 5509 5504 5499 5493 5488 5482 5476 5469 5463 5457 5450 5444